Location: Zagreb
(45.8000°N, 16.0000°E)
Time: 00:50:03
(UTC+01:00)

NUDT-PHONESAT - Pass Details

Date: 02 November 2020
Orbit: 481 x 500 km, 97.4° (Epoch: 30 November)

Event Time Altitude Azimuth Distance (km) Brightness Sun altitude
Rises 17:28:22 0° 159° (SSE) 2,586 ? -8.8°
Reaches altitude 10° 17:30:26 10° 156° (SSE) 1,708 ? -9.2°
Maximum altitude 17:34:05 65° 75° (ENE) 559 ? -9.8°
Drops below altitude 10° 17:37:45 10° 353° (N) 1,720 ? -10.4°
Sets 17:39:51 0° 351° (N) 2,607 ? -10.8°
